User: anonymous   Login
Location: Unspecified
(0.0000°N, 0.0000°E)
Time: 12:37:55
(UTC+00:00)
Language:

COSMOS 2501 (GLONASS) - Orbit

View from above orbital plane
View from above orbital plane
View from above satellite
View from above satellite

Ground track
Ground track

The orbit data is extracted from the following two-line orbital elements,

1 40315U 14075A   17087.86071525 +.00000013 +00000-0 +00000-0 0  9991
2 40315 064.4500 308.1561 0013390 208.1854 129.5521 02.13098554018092
Epoch (UTC): 28 March 2017 20:39:25
Eccentricity: 0.0013390
inclination: 64.4500°
perigee height: 19096 km
apogee height: 19164 km
right ascension of ascending node: 308.1561°
argument of perigee: 208.1854°
revolutions per day: 2.13098554
mean anomaly at epoch: 129.5521°
orbit number at epoch: 1809

The dashed part of the orbit path shows where the satellite is in the earth's shadow,  

DLR